Simultaneous Nadir Overpasses (SNOs) Predictions

Prediction of SNOs between AQUA and METOP-B Satellite Orbit:

Table of predicted SNOs for the next 14.0 days since TLE Epoch: 6/26/2021
Index Date (AQUA) Time (AQUA) Lat,Lon (AQUA) SZA (AQUA ) Date (METOP-B) Time (METOP-B) Lat,Lon (METOP-B) SZA (METOP-B ) Distance(km) Time Diff (sec)
1 06/28/2021 13:08:27 -73.75, 157.24 129.47 06/28/2021 13:07:13 -73.75, 157.36 129.46 3.55 74
2 06/28/2021 13:57:55 73.78, -35.18 50.57 06/28/2021 13:57:52 73.77, -35.26 50.56 3.06 3
3 06/28/2021 14:47:22 -73.85, 132.30 129.36 06/28/2021 14:48:32 -73.88, 132.32 129.34 2.71 70
4 07/01/2021 08:42:41 -73.73,-136.27 129.32 07/01/2021 08:41:37 -73.72,-136.30 129.31 1.48 64
5 07/01/2021 09:32:10 73.81, 31.19 50.78 07/01/2021 09:32:15 73.79, 31.20 50.75 2.84 5
6 07/01/2021 10:21:40 -74.04,-161.68 128.98 07/01/2021 10:22:52 -74.05,-160.85 129.01 25.30 72
7 07/04/2021 04:16:55 -73.72, -69.80 129.10 07/04/2021 04:16:00 -73.74, -69.84 129.07 2.88 55
8 07/04/2021 05:06:24 73.80, 97.66 50.99 07/04/2021 05:06:38 73.81, 97.65 51.00 0.77 14
9 07/04/2021 05:56:00 -74.39, -96.04 128.37 07/04/2021 05:57:07 -74.41, -93.52 128.45 75.47 67
10 07/06/2021 23:51:09 -73.76, -3.46 128.77 07/06/2021 23:50:22 -73.76, -3.39 128.77 2.13 47
11 07/07/2021 00:40:37 73.80, 164.11 51.27 07/07/2021 00:41:00 73.83, 164.10 51.30 3.38 23
12 07/09/2021 19:25:23 -73.76, 62.99 128.44 07/09/2021 19:24:45 -73.78, 63.06 128.42 2.54 38
13 07/09/2021 20:14:52 73.85,-129.56 51.66 07/09/2021 20:15:23 73.84,-129.45 51.64 3.55 31



Historial Predications of SNOs between AQUA and METOP-B
